This is the latest recevied weather packets stored in our database for station/object KE5QKR. If no packets are shown the sender has not sent any weather packets the latest 10 day(s).
| Time | Temp. | Humidity | Pressure | Rain* | Wind** | Luminosity | Snow |
|---|---|---|---|---|---|---|---|
| 1777656035 | 16.67° C | 99% | 1011.5 hPa | 0 mm | - | 133 W/m² | - |
| 1777655732 | 16.67° C | 99% | 1011.4 hPa | 0 mm | - | 65 W/m² | - |
| 1777655428 | 16.67° C | 99% | 1011.6 hPa | 0 mm | - | 60 W/m² | - |
| 1777655125 | 16.67° C | 99% | 1011.7 hPa | 0 mm | - | 70 W/m² | - |
| 1777654822 | 17.22° C | 98% | 1011.9 hPa | 0 mm | - | 55 W/m² | - |
| 1777654520 | 17.22° C | 98% | 1012 hPa | 0 mm | - | 45 W/m² | - |
| 1777654218 | 17.22° C | 98% | 1012.2 hPa | 0 mm | - | 43 W/m² | - |
| 1777653915 | 17.22° C | 98% | 1012 hPa | 0 mm | - | 74 W/m² | - |
| 1777653612 | 17.22° C | 97% | 1011.9 hPa | 0 mm | - | 78 W/m² | - |
| 1777653308 | 17.22° C | 97% | 1012.5 hPa | 0 mm | - | 51 W/m² | - |
| 1777653020 | 17.22° C | 97% | 1012.4 hPa | 0 mm | - | 55 W/m² | - |
| 1777652701 | 17.22° C | 97% | 1012.3 hPa | 0 mm | - | 70 W/m² | - |
| 1777652398 | 17.22° C | 97% | 1012.5 hPa | 0 mm | - | 99 W/m² | - |
| 1777652095 | 17.22° C | 97% | 1012.5 hPa | 0 mm | - | 96 W/m² | - |
| 1777651792 | 17.22° C | 97% | 1012.7 hPa | 0 mm | - | 81 W/m² | - |
| 1777651489 | 17.22° C | 98% | 1012.5 hPa | 0 mm | - | 95 W/m² | - |
| 1777651186 | 17.22° C | 98% | 1012.4 hPa | 0 mm | - | 67 W/m² | - |
| 1777650894 | 17.22° C | 98% | 1012.2 hPa | 0 mm | - | 55 W/m² | - |
| 1777650579 | 17.22° C | 98% | 1012.3 hPa | 0 mm | - | 53 W/m² | - |
| 1777650277 | 17.22° C | 97% | 1012.2 hPa | 0 mm | - | 54 W/m² | - |
| 1777649974 | 17.78° C | 97% | 1012.2 hPa | 0 mm | - | 53 W/m² | - |
| 1777649672 | 17.78° C | 97% | 1012 hPa | 0 mm | - | 100 W/m² | - |
| 1777649367 | 17.78° C | 97% | 1012.2 hPa | 0 mm | - | 95 W/m² | - |
| 1777649065 | 17.78° C | 97% | 1012.2 hPa | 0 mm | - | 98 W/m² | - |
| 1777648762 | 17.78° C | 97% | 1012.2 hPa | 0 mm | - | 74 W/m² | - |
* Rain latest hour (hover to see other rain measurements)
** Current wind speed in m/s (hover to see current wind gust speed)